Home > Weather > Amman > Past weeks

Flag for Jordan Weather for the Past 2 Weeks in Amman, Jordan

Now
41 °F

Heavy rain. Broken clouds.


Feels Like: 33 °F
Forecast: 39 / 49 °F
Wind: 14 mph from West

Location: Amman Airport

Current Time: Feb 7, 2016 at 8:01:34 AM

Latest Report: Feb 7, 2016 at 7:00 AM


Visibility: 2 mi

Pressure: 29.89 "Hg (27.04 "Hg at 816m altitude)

Humidity: 100%

Dew point: 41 °F

Location of AmmanLocation

Historic Weather in Amman — Graph

°F

Amman Temperature Yesterday

Maximum temperature yesterday: 54 °F (at 12:00 PM)
Minimum temperature yesterday: 43 °F (at 9:00 PM)
Average temperature yesterday: 49 °F

High & Low Weather Summary for the Past Weeks

 TemperatureHumidityPressure
High64 °F (Feb 4, 2:00 PM)100% (Jan 23, 5:00 PM)30.42 "Hg (Jan 23, 5:00 PM)
Low28 °F (Jan 28, 5:00 AM)16% (Feb 1, 3:00 PM)29.89 "Hg (Feb 7, 4:00 AM)
Average44 °F68%30.17 "Hg
* Reported Jan 23 7:00 AM — Feb 7 7:00 AM, Amman, Weather by CustomWeather, © 2016

Note: Actual official high and low records may vary slightly from our data, if they occured in-between our weather recording intervals... More about our weather records

Advertising

Amman Weather History for the Previous 24 Hours

 ConditionsComfort  
Time TempWeatherWind HumidityBarometerVisibility
7:00 AM
Sun, Feb 7
41 °FHeavy rain. Broken clouds.14 mph100%29.89 "Hg2 mi
6:00 AM41 °FHeavy rain. Partly cloudy.14 mph100%29.89 "Hg2 mi
5:00 AM41 °FRain. Partly cloudy.12 mph93%29.89 "Hg2 mi
4:00 AM43 °FRain. Partly cloudy.12 mph81%29.89 "Hg2 mi
3:00 AM43 °FRain. Partly cloudy.12 mph81%29.92 "Hg2 mi
2:00 AM43 °FRain. Partly cloudy.12 mph81%29.92 "Hg2 mi
1:00 AM43 °FLight rain. Passing clouds.12 mph81%29.95 "Hg2 mi
12:00 AM43 °FLight rain. Passing clouds.8 mph81%29.95 "Hg2 mi
11:00 PM
Sat, Feb 6
43 °FLight rain. Passing clouds.13 mph81%29.95 "Hg2 mi
10:00 PM43 °FRain. Partly cloudy.13 mph87%29.95 "Hg2 mi
9:00 PM43 °FRain. Partly cloudy.12 mph87%29.95 "Hg2 mi
8:00 PM46 °FPartly cloudy.12 mph82%29.95 "Hg2 mi
7:00 PM46 °FPartly cloudy.17 mph82%29.95 "Hg2 mi
5:00 PM50 °FBroken clouds.23 mph58%29.92 "Hg2 mi
4:00 PM50 °FBroken clouds.21 mph67%29.92 "Hg2 mi
3:00 PM52 °FBroken clouds.21 mph62%29.92 "Hg2 mi
2:00 PM54 °FSandstorm.23 mph63%29.92 "Hg2 mi
1:00 PM52 °FBroken clouds.21 mph54%29.95 "Hg2 mi
12:00 PM54 °FBroken clouds.18 mph51%29.95 "Hg3 mi
11:00 AM52 °FBroken clouds.16 mph54%29.98 "Hg3 mi
10:00 AM52 °FBroken clouds.16 mph67%30.01 "Hg3 mi
9:00 AM50 °FBroken clouds.16 mph76%30.01 "Hg3 mi
8:00 AM50 °FBroken clouds.9 mph76%29.98 "Hg3 mi
Weather by CustomWeather, © 2016

See weather overviewHow to use our weather pages